1491757200.97,47454,15.31,74160.3,-0.91,-28.59,-29.01,0,*62
1491757202.22,47455,15.31,74158.5,-0.91,-28.59,-29.13,0,*60
1491757203.45,47456,15.31,74158.5,-0.95,-28.53,-28.91,0,*66
1491757204.67,47457,15.31,74158.5,-0.93,-28.53,-29.07,0,*6F
1491757205.94,47458,15.31,74160.0,-0.93,-28.63,-29.17,0,*62
1491757207.16,47459,15.31,74160.5,-0.93,-28.69,-29.23,0,*6E
1491757208.38,47460,15.31,74160.5,-0.93,-28.69,-29.23,0,*64
1491757209.6,47461,15.31,74158.0,-0.93,-28.69,-29.23,0,*65
1491757210.83,47462,15.31,74162.0,-0.95,-28.53,-29.17,0,*6E
1491757212.08,47463,15.31,74158.8,-0.93,-28.53,-29.17,0,*69
1491757213.28,47464,15.31,74158.5,-0.95,-28.53,-29.07,0,*69
1491757214.5,47465,15.31,74162.3,-0.93,-28.53,-29.07,0,*6E
1491757215.73,47466,15.31,74160.3,-0.95,-28.53,-29.01,0,*6D
1491757216.95,47467,15.31,74160.0,-0.95,-28.63,-29.07,0,*69
1491757218.19,47468,15.31,74160.8,-0.93,-28.75,-29.23,0,*61
1491757219.45,47469,15.31,74160.3,-0.95,-28.75,-29.35,0,*61
1491757220.64,47470,15.31,74160.0,-0.95,-28.53,-29.07,0,*6C
1491757221.87,47471,15.31,74160.3,-0.95,-28.53,-29.17,0,*6C
1491757223.09,47472,15.31,74160.5,-0.95,-28.63,-29.07,0,*6D
1491757224.29,47473,15.31,74164.3,-0.95,-28.53,-29.07,0,*6F
1491757225.53,47474,15.31,74162.8,-0.97,-28.69,-29.13,0,*66
1491757226.79,47475,15.31,74160.0,-0.93,-28.37,-28.91,0,*63
1491757228.03,47476,15.31,74164.0,-0.97,-28.53,-29.13,0,*6D
1491757229.28,47477,15.31,74162.5,-0.97,-28.59,-29.23,0,*65
1491757230.55,47478,15.31,74162.0,-0.97,-28.59,-29.13,0,*69
1491757231.77,47479,15.31,74162.0,-0.97,-28.69,-29.23,0,*68
1491757232.99,47480,15.31,74160.5,-0.97,-28.69,-29.23,0,*6E
1491757234.21,47481,15.31,74162.0,-0.95,-28.63,-29.23,0,*67
1491757235.45,47482,15.31,74158.8,-0.97,-28.69,-29.29,0,*66
1491757236.7,47483,15.31,74162.8,-0.97,-28.69,-29.29,0,*67
1491757237.94,47484,15.31,74160.8,-0.99,-28.63,-29.29,0,*64
1491757239.21,47485,15.31,74160.0,-0.97,-28.59,-29.29,0,*62
1491757240.46,47486,15.31,74160.3,-0.99,-28.63,-29.29,0,*66
1491757241.71,47487,15.31,74162.0,-0.99,-28.75,-29.17,0,*6D
1491757242.95,47488,15.31,74162.5,-0.99,-28.75,-29.29,0,*6F
1491757244.17,47489,15.31,74162.0,-0.99,-28.85,-29.29,0,*61
1491757245.42,47490,15.31,74160.0,-0.99,-28.79,-29.29,0,*6A
1491757246.67,47491,15.31,74162.8,-0.97,-28.79,-29.23,0,*6F
1491757247.92,47492,15.31,74162.5,-0.99,-28.63,-29.17,0,*6E
1491757249.16,47493,15.31,74162.3,-0.97,-28.69,-29.13,0,*6F
1491757250.41,47494,15.31,74160.5,-0.99,-28.63,-29.17,0,*68
1491757251.65,47495,15.31,74160.8,-0.99,-28.63,-29.29,0,*64
1491757252.9,47496,15.31,74162.5,-0.99,-28.63,-29.29,0,*67
1491757254.18,47497,15.31,74160.3,-1.01,-28.63,-29.17,0,*5B
1491757255.46,47498,15.31,74160.5,-1.01,-28.75,-29.29,0,*5E
1491757256.72,47499,15.31,74162.3,-1.03,-28.79,-29.51,0,*5E
1491757257.95,47500,15.31,74160.0,-1.03,-28.69,-29.35,0,*5C
1491757259.23,47501,15.31,74164.3,-1.01,-28.75,-29.29,0,*5F
1491757260.51,47502,15.31,74160.5,-1.01,-28.79,-29.29,0,*50
1491757261.71,47503,15.31,74160.8,-1.03,-28.69,-29.23,0,*58
1491757262.97,47504,15.31,74160.3,-1.03,-28.79,-29.35,0,*59
1491757264.23,47505,15.31,74160.8,-1.03,-28.79,-29.39,0,*54
1491757265.49,47506,15.31,74162.8,-1.03,-28.79,-29.51,0,*59
1491757266.72,47507,15.31,74162.0,-1.05,-28.69,-29.23,0,*5A
1491757267.92,47508,15.31,74160.5,-1.03,-28.69,-29.23,0,*53
1491757269.15,47509,15.31,74162.5,-1.03,-28.63,-29.23,0,*58
1491757270.37,47510,15.31,74162.3,-1.03,-28.63,-29.23,0,*50
1491757271.66,47511,15.31,74160.8,-1.05,-28.79,-29.35,0,*5B
1491757272.92,47512,15.31,74162.8,-1.03,-28.79,-29.39,0,*52
1491757274.18,47513,15.31,74160.5,-1.05,-28.85,-29.35,0,*5A
1491757275.44,47514,15.31,74160.5,-1.05,-28.85,-29.51,0,*5F
1491757276.7,47515,15.31,74160.8,-1.05,-28.85,-29.39,0,*50
1491757277.96,47516,15.31,74162.8,-1.05,-28.69,-29.35,0,*5D
1491757279.21,47517,15.31,74158.8,-1.07,-28.75,-29.29,0,*5E
1491757280.5,47518,15.31,74160.8,-1.05,-28.79,-29.35,0,*52
1491757281.75,47519,15.31,74162.3,-1.07,-28.75,-29.29,0,*50
1491757283.0,47520,15.31,74160.0,-1.07,-28.75,-29.39,0,*5B
1491757284.23,47521,15.31,74162.3,-1.05,-28.69,-29.23,0,*5E
1491757285.49,47522,15.31,74162.8,-1.07,-28.75,-29.39,0,*59
1491757286.73,47523,15.31,74160.0,-1.07,-28.91,-29.45,0,*59
1491757287.97,47524,15.31,74162.3,-1.07,-28.91,-29.45,0,*5E
1491757289.21,47525,15.31,74162.5,-1.07,-28.85,-29.39,0,*51
1491757290.43,47526,15.31,74162.3,-1.11,-28.69,-29.29,0,*56
1491757291.68,47527,15.31,74162.5,-1.11,-28.75,-29.29,0,*5A
1491757292.89,47528,15.31,74162.8,-1.11,-28.85,-29.23,0,*50
1491757294.15,47529,15.31,74160.8,-1.13,-28.79,-29.45,0,*50
1491757295.44,47530,15.31,74160.5,-1.13,-28.79,-29.35,0,*5F
1491757296.72,47531,15.31,74166.8,-1.13,-28.75,-29.35,0,*52
1491757297.95,47532,15.31,74162.3,-1.11,-28.69,-29.29,0,*53
1491757299.23,47533,15.31,74162.0,-1.13,-28.63,-29.29,0,*5A
1491757300.5,47534,15.31,74162.8,-1.13,-28.75,-29.29,0,*5A
1491757301.79,47535,15.31,74160.0,-1.13,-28.63,-29.17,0,*51
1491757303.04,47536,15.31,74162.3,-1.11,-28.59,-29.13,0,*5D
1491757304.32,47537,15.31,74160.3,-1.13,-28.75,-29.29,0,*59
1491757305.6,47538,15.31,74162.3,-1.13,-28.63,-29.17,0,*5C
1491757306.88,47539,15.31,74164.5,-1.13,-28.63,-29.17,0,*5D
1491757308.16,47540,15.31,74162.8,-1.13,-28.59,-29.17,0,*5A
1491757309.44,47541,15.31,74162.5,-1.13,-28.59,-29.13,0,*5F
1491757310.72,47542,15.31,74162.0,-1.13,-28.59,-29.13,0,*5C
1491757312.0,47543,15.31,74166.3,-1.13,-28.59,-29.01,0,*5E
1491757313.27,47544,15.31,74162.0,-1.13,-28.47,-29.13,0,*55
1491757314.53,47545,15.31,74164.0,-1.15,-28.43,-29.01,0,*55
1491757315.81,47546,15.31,74160.5,-1.13,-28.59,-29.13,0,*58
1491757317.07,47547,15.31,74160.8,-1.15,-28.59,-29.13,0,*5F
1491757318.34,47548,15.31,74162.8,-1.13,-28.47,-29.13,0,*59
1491757319.62,47549,15.31,74164.0,-1.13,-28.59,-29.13,0,*57
1491757320.89,47550,15.31,74166.0,-1.13,-28.47,-29.13,0,*50
1491757322.14,47551,15.31,74162.0,-1.13,-28.43,-28.97,0,*58
1491757323.37,47552,15.31,74160.5,-1.15,-28.43,-28.97,0,*5D
1491757324.62,47553,15.31,74162.5,-1.15,-28.47,-29.13,0,*55
1491757325.87,47554,15.31,74162.0,-1.15,-28.59,-29.13,0,*5D
1491757327.15,47555,15.31,74162.8,-1.13,-28.59,-29.29,0,*53
1491757328.41,47556,15.31,74166.3,-1.15,-28.59,-29.13,0,*5F
1491757329.67,47557,15.31,74162.3,-1.15,-28.59,-29.01,0,*5D
1491757330.93,47558,15.31,74160.3,-1.15,-28.59,-29.13,0,*51
1491757332.18,47559,15.31,74164.0,-1.15,-28.59,-29.13,0,*50
1491757333.43,47560,15.31,74162.0,-1.15,-28.47,-29.01,0,*56
1491757334.69,47561,15.31,74162.0,-1.15,-28.59,-29.13,0,*5B
1491757335.95,47562,15.31,74162.3,-1.15,-28.47,-29.01,0,*54
1491757337.18,47563,15.31,74160.8,-1.15,-28.43,-28.97,0,*5F
1491757338.44,47564,15.31,74162.5,-1.15,-28.43,-28.91,0,*5E
1491757339.7,47565,15.31,74162.0,-1.15,-28.25,-28.79,0,*59
1491757340.93,47566,15.31,74164.3,-1.15,-28.25,-28.97,0,*5A
1491757342.17,47567,15.31,74164.3,-1.15,-28.31,-28.91,0,*58
1491757343.42,47568,15.31,74166.3,-1.15,-28.59,-29.13,0,*52
1491757344.68,47569,15.31,74162.5,-1.15,-28.59,-29.13,0,*53
1491757345.96,47570,15.31,74164.8,-1.13,-28.59,-29.01,0,*5E
1491757347.25,47571,15.31,74160.5,-1.13,-28.59,-29.01,0,*5F
1491757348.52,47572,15.31,74162.0,-1.13,-28.47,-29.01,0,*53
1491757349.8,47573,15.31,74160.0,-1.13,-28.47,-29.13,0,*51
1491757351.07,47574,15.31,74162.0,-1.13,-28.47,-29.13,0,*56
1491757352.35,47575,15.31,74162.0,-1.13,-28.59,-29.13,0,*58
1491757353.62,47576,15.31,74156.5,-1.13,-28.59,-29.13,0,*5B
1491757354.9,47577,15.31,74162.0,-1.13,-28.47,-29.01,0,*56
1491757356.13,47578,15.31,74158.3,-1.15,-28.43,-28.97,0,*55
1491757357.41,47579,15.31,74156.8,-1.13,-28.59,-29.13,0,*54
1491757358.69,47580,15.31,74160.5,-1.13,-28.59,-29.17,0,*56
1491757359.98,47581,15.31,74158.5,-1.13,-28.59,-29.01,0,*50
1491757361.23,47582,15.31,74160.5,-1.15,-28.47,-29.01,0,*5A
1491757362.52,47583,15.31,74162.8,-1.13,-28.43,-29.01,0,*59
1491757363.74,47584,15.31,74160.5,-1.15,-28.47,-28.97,0,*52
1491757365.02,47585,15.31,74162.0,-1.13,-28.43,-29.01,0,*5F
1491757366.3,47586,15.31,74162.0,-1.13,-28.47,-29.01,0,*58
1491757367.56,47587,15.31,74158.8,-1.15,-28.59,-29.01,0,*50
1491757368.82,47588,15.31,74160.8,-1.15,-28.43,-29.01,0,*54
1491757370.1,47589,15.31,74160.0,-1.13,-28.59,-29.13,0,*5B
1491757371.35,47590,15.31,74160.5,-1.13,-28.47,-28.97,0,*51
1491757372.63,47591,15.31,74162.8,-1.13,-28.59,-29.13,0,*52
1491757373.91,47592,15.31,74162.3,-1.13,-28.59,-29.01,0,*52
1491757375.19,47593,15.31,74162.5,-1.13,-28.59,-29.13,0,*50
1491757376.46,47594,15.31,74162.8,-1.13,-28.47,-29.13,0,*58
1491757377.74,47595,15.31,74160.0,-1.13,-28.47,-29.13,0,*59
1491757378.99,47596,15.31,74162.3,-1.13,-28.43,-28.97,0,*53
1491757380.22,47597,15.31,74162.3,-1.15,-28.43,-28.97,0,*54
1491757381.45,47598,15.31,74162.3,-1.15,-28.43,-28.97,0,*5B
1491757382.71,47599,15.31,74160.3,-1.15,-28.43,-28.91,0,*5C
1491757383.95,47600,15.31,74160.8,-1.15,-28.31,-28.91,0,*5A
1491757385.18,47601,15.31,74156.5,-1.15,-28.31,-28.91,0,*5B
1491757386.44,47602,15.31,74158.3,-1.15,-28.47,-28.91,0,*59
1491757387.7,47603,15.31,74162.5,-1.15,-28.59,-29.13,0,*5C
1491757388.95,47604,15.31,74162.0,-1.15,-28.63,-29.17,0,*56
1491757390.21,47605,15.31,74160.0,-1.15,-28.63,-29.17,0,*57
1491757391.47,47606,15.31,74162.3,-1.15,-28.63,-29.17,0,*54
1491757392.73,47607,15.31,74162.3,-1.15,-28.63,-29.01,0,*52
1491757394.02,47608,15.31,74160.0,-1.13,-28.59,-29.17,0,*55
1491757395.3,47609,15.31,74160.8,-1.13,-28.43,-29.01,0,*58
1491757396.55,47610,15.31,74162.5,-1.15,-28.59,-29.13,0,*5E
1491757397.77,47611,15.31,74162.8,-1.17,-28.69,-29.17,0,*5A
1491757399.03,47612,15.31,74156.8,-1.15,-28.59,-29.13,0,*5C
1491757400.28,47613,15.31,74156.8,-1.17,-28.63,-29.17,0,*52
1491757401.51,47614,15.31,74162.3,-1.15,-28.47,-28.97,0,*58
1491757402.76,47615,15.31,74158.5,-1.15,-28.43,-29.13,0,*50
1491757404.01,47616,15.31,74158.8,-1.15,-28.59,-29.13,0,*58
1491757405.26,47617,15.31,74160.0,-1.17,-28.63,-29.17,0,*56
1491757406.54,47618,15.31,74158.3,-1.13,-28.59,-29.13,0,*50
1491757407.79,47619,15.31,74160.8,-1.15,-28.47,-29.01,0,*5B
1491757409.02,47620,15.31,74162.8,-1.17,-28.53,-29.17,0,*51
1491757410.25,47621,15.31,74162.0,-1.15,-28.43,-28.97,0,*5A
1491757411.5,47622,15.31,74158.5,-1.15,-28.47,-29.13,0,*50
1491757412.75,47623,15.31,74158.5,-1.15,-28.47,-29.13,0,*51
1491757414.0,47624,15.31,74158.8,-1.15,-28.63,-29.13,0,*50
1491757415.26,47625,15.31,74162.0,-1.15,-28.75,-29.17,0,*52
1491757416.48,47626,15.31,74160.3,-1.17,-28.79,-29.23,0,*58
1491757417.67,47627,15.31,74162.5,-1.17,-28.69,-29.23,0,*58
1491757418.88,47628,15.31,74158.3,-1.15,-28.69,-29.23,0,*55
1491757420.09,47629,15.31,74156.5,-1.17,-28.47,-29.07,0,*5C
1491757421.34,47630,15.31,74162.0,-1.17,-28.63,-29.17,0,*53
1491757422.6,47631,15.31,74158.8,-1.15,-28.59,-29.13,0,*5D
1491757423.83,47632,15.31,74160.5,-1.15,-28.43,-28.97,0,*58
1491757425.04,47633,15.31,74156.3,-1.17,-28.47,-29.07,0,*57
1491757426.27,47634,15.31,74156.8,-1.17,-28.53,-29.17,0,*54
1491757427.49,47635,15.31,74160.5,-1.17,-28.53,-29.17,0,*55
1491757428.74,47636,15.31,74160.3,-1.17,-28.63,-29.17,0,*55
1491757429.94,47637,15.31,74160.0,-1.17,-28.53,-29.07,0,*56
1491757431.18,47638,15.31,74158.3,-1.17,-28.47,-29.01,0,*5A
1491757432.44,47639,15.31,74162.5,-1.15,-28.59,-29.13,0,*55
1491757433.69,47640,15.31,74162.8,-1.19,-28.37,-29.01,0,*5C
1491757434.91,47641,15.31,74158.8,-1.17,-28.47,-28.97,0,*5A
1491757436.14,47642,15.31,74160.3,-1.17,-28.53,-29.17,0,*55
1491757437.35,47643,15.31,74158.0,-1.17,-28.47,-29.07,0,*50
1491757438.56,47644,15.31,74160.0,-1.17,-28.47,-29.07,0,*57
1491757439.79,47645,15.31,74162.8,-1.15,-28.31,-28.75,0,*51
1491757441.04,47646,15.31,74160.5,-1.17,-28.47,-29.17,0,*54
1491757442.23,47647,15.31,74160.5,-1.17,-28.53,-29.07,0,*51
1491757443.49,47648,15.31,74156.8,-1.19,-28.37,-29.01,0,*54
1491757444.74,47649,15.31,74162.5,-1.19,-28.37,-28.79,0,*5B
1491757445.96,47650,15.31,74160.0,-1.17,-28.37,-29.01,0,*53
1491757447.21,47651,15.31,74160.0,-1.17,-28.47,-29.01,0,*55
1491757448.42,47652,15.31,74162.3,-1.17,-28.47,-29.07,0,*50
1491757449.67,47653,15.31,74160.0,-1.17,-28.47,-29.17,0,*50
1491757450.89,47654,15.31,74160.5,-1.17,-28.53,-29.17,0,*52
1491757452.16,47655,15.31,74162.3,-1.19,-28.47,-29.17,0,*58
1491757453.43,47656,15.31,74162.5,-1.19,-28.47,-29.01,0,*5C
1491757454.66,47657,15.31,74162.0,-1.17,-28.53,-29.01,0,*56
1491757455.91,47658,15.31,74160.5,-1.15,-28.59,-29.13,0,*52
1491757457.16,47659,15.31,74162.8,-1.17,-28.63,-29.17,0,*5C
1491757458.42,47660,15.25,74156.0,-1.15,-28.59,-29.13,0,*59
1491757459.64,47661,15.31,74156.3,-1.17,-28.69,-29.17,0,*5D
1491757460.91,47662,15.31,74156.5,-1.19,-28.63,-29.17,0,*5A
1491757462.14,47663,15.31,74160.0,-1.19,-28.53,-29.07,0,*59
1491757463.39,47664,15.31,74160.5,-1.21,-28.59,-29.13,0,*5A
1491757464.64,47665,15.31,74162.5,-1.19,-28.69,-29.35,0,*57
1491757465.86,47666,15.31,74160.5,-1.19,-28.69,-29.23,0,*53
1491757467.06,47667,15.31,74160.8,-1.21,-28.69,-29.23,0,*59
1491757468.31,47668,15.31,74160.5,-1.21,-28.75,-29.39,0,*50
1491757469.56,47669,15.31,74162.0,-1.21,-28.75,-29.29,0,*50
1491757470.8,47670,15.31,74160.8,-1.19,-28.63,-29.23,0,*5E
1491757472.08,47671,15.31,74162.0,-1.19,-28.63,-29.17,0,*58
1491757473.3,47672,15.31,74160.0,-1.21,-28.59,-29.23,0,*5E
1491757474.5,47673,15.31,74162.3,-1.21,-28.53,-29.07,0,*53
1491757475.73,47674,15.31,74160.3,-1.21,-28.69,-29.13,0,*58
1491757476.95,47675,15.31,74160.5,-1.21,-28.69,-29.13,0,*59
1491757478.22,47676,15.31,74162.3,-1.19,-28.47,-29.01,0,*5E
1491757479.44,47677,15.31,74160.5,-1.21,-28.53,-29.13,0,*52
1491757480.69,47678,15.31,74160.0,-1.21,-28.43,-29.01,0,*5F
1491757481.94,47679,15.31,74160.5,-1.21,-28.59,-29.13,0,*56
1491757483.19,47680,15.31,74160.8,-1.19,-28.63,-29.23,0,*51
1491757484.41,47681,15.31,74162.8,-1.21,-28.69,-29.13,0,*52
1491757485.63,47682,15.31,74160.8,-1.21,-28.53,-29.13,0,*58
1491757486.88,47683,15.31,74160.0,-1.19,-28.47,-29.07,0,*52
1491757488.1,47684,15.31,74158.3,-1.21,-28.43,-29.07,0,*5A
1491757489.35,47685,15.31,74158.8,-1.21,-28.43,-28.91,0,*55
1491757490.59,47686,15.31,74162.5,-1.23,-28.47,-29.07,0,*5E
1491757491.84,47687,15.31,74160.8,-1.23,-28.47,-28.97,0,*57
1491757493.07,47688,15.31,74160.0,-1.21,-28.37,-28.91,0,*5B
1491757494.28,47689,15.31,74158.5,-1.21,-28.37,-28.97,0,*5C
1491757495.5,47690,15.31,74162.0,-1.19,-28.37,-28.97,0,*5F
1491757496.76,47691,15.31,74160.8,-1.21,-28.25,-28.91,0,*50
1491757497.99,47692,15.31,74162.5,-1.21,-28.37,-29.01,0,*58
1491757499.22,47693,15.31,74160.5,-1.19,-28.31,-28.85,0,*59
1491757500.46,47694,15.31,74162.3,-1.19,-28.47,-28.97,0,*5C
1491757501.72,47695,15.31,74160.0,-1.19,-28.37,-29.01,0,*54
1491757502.98,47696,15.31,74160.5,-1.21,-28.25,-29.01,0,*5F
1491757504.18,47697,15.31,74162.5,-1.21,-28.37,-28.85,0,*50
1491757505.41,47698,15.31,74156.3,-1.19,-28.37,-28.97,0,*57
1491757506.66,47699,15.31,74158.3,-1.19,-28.31,-29.01,0,*5E
1491757507.9,47700,15.31,74156.0,-1.19,-28.37,-28.85,0,*54
1491757509.12,47701,15.25,74158.0,-1.19,-28.31,-28.85,0,*53
1491757510.38,47702,15.31,74160.5,-1.19,-28.37,-29.01,0,*5B
1491757511.6,47703,15.31,74158.0,-1.19,-28.37,-28.97,0,*54
1491757512.84,47704,15.31,74158.3,-1.19,-28.37,-28.85,0,*50
1491757514.07,47705,15.31,74160.0,-1.19,-28.37,-28.85,0,*51
1491757515.32,47706,15.31,74162.8,-1.21,-28.43,-29.01,0,*57
1491757516.55,47707,15.31,74160.0,-1.19,-28.37,-28.97,0,*50
1491757517.78,47708,15.31,74158.0,-1.19,-28.37,-28.97,0,*5F
1491757519.0,47709,15.31,74158.0,-1.19,-28.31,-28.97,0,*58
1491757520.22,47710,15.31,74158.8,-1.19,-28.37,-29.07,0,*5E
1491757521.49,47711,15.31,74158.0,-1.19,-28.47,-29.01,0,*5E
1491757522.76,47712,15.31,74158.0,-1.19,-28.47,-29.01,0,*5D
1491757523.98,47713,15.31,74158.0,-1.17,-28.63,-29.07,0,*52
1491757525.18,47714,15.31,74158.8,-1.17,-28.53,-29.07,0,*56
1491757526.41,47715,15.31,74158.8,-1.17,-28.53,-29.17,0,*56
1491757527.68,47716,15.31,74158.0,-1.19,-28.63,-29.17,0,*58
1491757528.9,47717,15.31,74156.3,-1.17,-28.63,-29.23,0,*50
1491757530.1,47718,15.31,74158.8,-1.21,-28.69,-29.23,0,*50
1491757531.33,47719,15.31,74156.8,-1.19,-28.53,-29.07,0,*55
1491757532.53,47720,15.31,74158.5,-1.17,-28.53,-29.07,0,*51
1491757533.77,47721,15.31,74156.5,-1.17,-28.63,-29.17,0,*52
1491757534.99,47722,15.31,74158.5,-1.17,-28.63,-29.07,0,*50
1491757536.24,47723,15.31,74156.3,-1.17,-28.63,-29.17,0,*50
1491757537.48,47724,15.31,74156.8,-1.19,-28.47,-29.07,0,*5E
1491757538.73,47725,15.31,74156.8,-1.19,-28.63,-29.07,0,*59
1491757539.97,47726,15.31,74156.3,-1.21,-28.47,-29.13,0,*52
1491757541.25,47727,15.31,74156.5,-1.19,-28.63,-29.01,0,*5D
1491757542.52,47728,15.31,74160.5,-1.19,-28.47,-29.01,0,*54
1491757543.76,47729,15.31,74156.0,-1.19,-28.47,-29.07,0,*53
1491757544.99,47730,15.31,74158.5,-1.19,-28.37,-28.97,0,*54
1491757546.21,47731,15.31,74158.8,-1.19,-28.31,-28.97,0,*53
1491757547.48,47732,15.31,74156.3,-1.19,-28.47,-29.01,0,*5F
1491757548.71,47733,15.25,74154.8,-1.19,-28.53,-29.07,0,*5D
1491757549.98,47734,15.31,74160.3,-1.19,-28.63,-29.17,0,*58
1491757551.25,47735,15.31,74156.5,-1.19,-28.47,-29.01,0,*58
1491757552.51,47736,15.31,74158.5,-1.19,-28.53,-29.17,0,*59
1491757553.76,47737,15.31,74158.5,-1.19,-28.53,-29.01,0,*5F
1491757554.99,47738,15.31,74156.3,-1.21,-28.53,-29.13,0,*58
1491757556.18,47739,15.31,74156.0,-1.17,-28.53,-29.07,0,*59
1491757557.4,47740,15.31,74158.8,-1.17,-28.63,-29.07,0,*54
1491757558.65,47741,15.31,74156.3,-1.17,-28.63,-29.17,0,*54
1491757559.9,47742,15.31,74156.3,-1.17,-28.63,-29.17,0,*57
1491757561.15,47743,15.31,74158.3,-1.17,-28.63,-29.17,0,*56
1491757562.4,47744,15.31,74158.8,-1.19,-28.69,-29.17,0,*55
1491757563.62,47745,15.31,74156.0,-1.21,-28.75,-29.23,0,*55
1491757564.89,47746,15.31,74156.5,-1.19,-28.63,-29.17,0,*5D
1491757566.14,47747,15.31,74156.0,-1.21,-28.59,-29.13,0,*5A
1491757567.39,47748,15.31,74156.5,-1.19,-28.63,-29.07,0,*52
1491757568.61,47749,15.31,74162.3,-1.21,-28.59,-29.07,0,*51
1491757569.87,47750,15.31,74158.8,-1.19,-28.53,-29.01,0,*5E
1491757571.12,47751,15.31,74158.8,-1.21,-28.59,-29.13,0,*5D
1491757572.34,47752,15.31,74156.0,-1.21,-28.75,-29.23,0,*53
1491757573.56,47753,15.31,74162.0,-1.21,-28.75,-29.23,0,*52
1491757574.78,47754,15.31,74158.3,-1.21,-28.69,-29.13,0,*5B
1491757576.03,47755,15.31,74160.5,-1.19,-28.63,-29.23,0,*58
1491757577.25,47756,15.31,74158.0,-1.21,-28.75,-29.23,0,*57
1491757578.47,47757,15.31,74156.0,-1.21,-28.75,-29.23,0,*56
1491757579.7,47758,15.31,74156.3,-1.19,-28.53,-29.07,0,*50
1491757580.89,47759,15.31,74156.0,-1.21,-28.69,-29.23,0,*55
1491757582.14,47760,15.31,74158.3,-1.19,-28.69,-29.17,0,*53
1491757583.36,47761,15.31,74158.8,-1.21,-28.75,-29.23,0,*53
1491757584.59,47762,15.25,74154.3,-1.21,-28.75,-29.23,0,*50
1491757585.81,47763,15.25,74156.8,-1.21,-28.69,-29.29,0,*56
1491757587.04,47764,15.25,74154.0,-1.21,-28.85,-29.39,0,*52
1491757588.28,47765,15.25,74156.8,-1.21,-28.75,-29.29,0,*5D
1491757589.57,47766,15.31,74160.3,-1.23,-28.79,-29.35,0,*5D
1491757590.84,47767,15.31,74160.0,-1.23,-28.75,-29.29,0,*5D
1491757592.12,47768,15.31,74156.8,-1.23,-28.75,-29.35,0,*5F
1491757593.41,47769,15.31,74158.8,-1.23,-28.75,-29.35,0,*5E
1491757594.69,47770,15.25,74152.8,-1.23,-28.75,-29.35,0,*56
1491757595.97,47771,15.31,74158.3,-1.23,-28.75,-29.35,0,*57
1491757597.22,47772,15.25,74156.3,-1.25,-28.63,-29.17,0,*55
1491757598.46,47773,15.31,74160.5,-1.25,-28.63,-29.29,0,*59
1491757599.75,47774,15.31,74158.3,-1.23,-28.75,-29.35,0,*52
1491757601.03,47775,15.31,74158.8,-1.23,-28.75,-29.35,0,*53
1491757602.28,47776,15.31,74158.5,-1.25,-28.63,-29.17,0,*51
1491757603.52,47777,15.31,74158.8,-1.25,-28.63,-29.29,0,*5D
1491757604.77,47778,15.31,74160.0,-1.25,-28.75,-29.29,0,*55
1491757606.02,47779,15.31,74158.3,-1.25,-28.79,-29.35,0,*55
1491757607.27,47780,15.31,74160.0,-1.25,-28.75,-29.17,0,*5F
1491757608.52,47781,15.31,74160.8,-1.25,-28.59,-29.17,0,*50
1491757609.76,47782,15.31,74160.8,-1.25,-28.63,-29.13,0,*5E
1491757611.0,47783,15.31,74158.0,-1.25,-28.75,-29.29,0,*51
1491757612.25,47784,15.31,74158.8,-1.25,-28.75,-29.29,0,*56
1491757613.49,47785,15.31,74158.0,-1.25,-28.63,-29.29,0,*50
1491757614.74,47786,15.25,74158.5,-1.25,-28.63,-29.17,0,*5E
1491757615.99,47787,15.31,74160.8,-1.27,-28.79,-29.23,0,*51
1491757617.28,47788,15.31,74158.5,-1.27,-28.79,-29.35,0,*59
1491757618.55,47789,15.31,74158.8,-1.27,-28.79,-29.39,0,*54
1491757619.78,47790,15.31,74160.8,-1.29,-28.85,-29.39,0,*51
1491757621.04,47791,15.25,74154.8,-1.27,-28.85,-29.39,0,*5E
1491757622.32,47792,15.31,74160.0,-1.27,-28.79,-29.29,0,*5F
1491757623.57,47793,15.31,74158.3,-1.29,-28.79,-29.39,0,*51
1491757624.83,47794,15.31,74158.5,-1.27,-28.69,-29.35,0,*55
1491757626.05,47795,15.31,74158.3,-1.27,-28.69,-29.23,0,*53
1491757627.31,47796,15.31,74158.0,-1.27,-28.69,-29.35,0,*57
1491757628.56,47797,15.31,74160.5,-1.27,-28.63,-29.23,0,*5B
1491757629.76,47798,15.31,74156.3,-1.29,-28.53,-29.23,0,*59
1491757631.02,47799,15.31,74156.0,-1.29,-28.79,-29.35,0,*57
1491757632.25,47800,15.25,74158.0,-1.29,-28.63,-29.23,0,*54
1491757633.52,47801,15.25,74156.8,-1.27,-28.63,-29.17,0,*5C
1491757634.75,47802,15.31,74158.3,-1.27,-28.69,-29.23,0,*52
1491757636.01,47803,15.31,74158.3,-1.29,-28.79,-29.35,0,*5B
1491757637.27,47804,15.31,74156.0,-1.29,-28.79,-29.35,0,*5C
1491757638.55,47805,15.31,74158.3,-1.27,-28.79,-29.35,0,*53
1491757639.81,47806,15.25,74156.8,-1.27,-28.85,-29.35,0,*53
1491757641.04,47807,15.31,74156.8,-1.29,-28.85,-29.39,0,*50
1491757642.28,47808,15.31,74158.3,-1.29,-28.69,-29.35,0,*51
1491757643.5,47809,15.31,74158.3,-1.29,-28.63,-29.23,0,*5D
1491757644.76,47810,15.31,74156.8,-1.29,-28.63,-29.35,0,*52
1491757645.96,47811,15.31,74156.0,-1.29,-28.69,-29.23,0,*5E
1491757647.22,47812,15.31,74156.0,-1.29,-28.79,-29.35,0,*5B
1491757648.48,47813,15.31,74160.3,-1.29,-28.79,-29.35,0,*5A
1491757649.7,47814,15.25,74156.8,-1.29,-28.79,-29.23,0,*5A
1491757650.9,47815,15.31,74156.8,-1.29,-28.69,-29.23,0,*5A
1491757652.16,47816,15.31,74158.5,-1.29,-28.79,-29.35,0,*5F
1491757653.42,47817,15.31,74158.5,-1.31,-28.91,-29.45,0,*56
1491757654.69,47818,15.31,74156.8,-1.31,-28.75,-29.17,0,*54
1491757655.94,47819,15.31,74158.5,-1.31,-28.69,-29.17,0,*58
1491757657.19,47820,15.31,74158.8,-1.29,-28.63,-29.13,0,*55
1491757658.46,47821,15.31,74158.5,-1.31,-28.59,-29.17,0,*50
1491757659.74,47822,15.31,74158.0,-1.31,-28.59,-29.17,0,*53
1491757661.01,47823,15.25,74156.0,-1.31,-28.43,-29.01,0,*5E
1491757662.26,47824,15.31,74156.3,-1.31,-28.43,-29.07,0,*5F
1491757663.51,47825,15.25,74156.0,-1.31,-28.53,-29.17,0,*5E
1491757664.74,47826,15.25,74156.8,-1.29,-28.59,-29.23,0,*59
1491757666.0,47827,15.25,74158.8,-1.29,-28.79,-29.35,0,*5D
1491757667.25,47828,15.25,74154.5,-1.31,-28.85,-29.39,0,*54
1491757668.5,47829,15.31,74158.5,-1.31,-28.85,-29.29,0,*54
1491757669.75,47830,15.25,74156.3,-1.31,-28.75,-29.23,0,*59
1491757670.97,47831,15.31,74160.0,-1.31,-28.69,-29.23,0,*55
1491757672.21,47832,15.31,74160.8,-1.31,-28.75,-29.23,0,*5B
1491757673.47,47833,15.31,74158.3,-1.35,-28.59,-29.23,0,*50
1491757674.74,47834,15.31,74158.0,-1.31,-28.59,-29.17,0,*54
1491757676.02,47835,15.31,74158.8,-1.31,-28.59,-29.01,0,*52
1491757677.28,47836,15.31,74156.3,-1.35,-28.53,-29.01,0,*5F
1491757678.5,47837,15.25,74158.0,-1.31,-28.69,-29.23,0,*53
1491757679.75,47838,15.31,74158.0,-1.31,-28.85,-29.39,0,*55
1491757680.98,47839,15.25,74158.0,-1.31,-28.69,-29.23,0,*5D
1491757682.23,47840,15.31,74158.0,-1.29,-28.63,-29.13,0,*53
1491757683.45,47841,15.31,74160.3,-1.29,-28.63,-29.23,0,*51
1491757684.68,47842,15.25,74158.0,-1.29,-28.53,-29.13,0,*52
1491757685.9,47843,15.25,74156.8,-1.31,-28.53,-29.07,0,*5F
1491757687.15,47844,15.25,74156.0,-1.31,-28.75,-29.23,0,*5A
1491757688.37,47845,15.25,74156.0,-1.31,-28.69,-29.23,0,*56
1491757689.65,47846,15.31,74158.3,-1.31,-28.59,-29.17,0,*51
1491757690.89,47847,15.31,74158.5,-1.31,-28.59,-29.07,0,*51
1491757692.14,47848,15.31,74158.3,-1.31,-28.59,-29.07,0,*5E
1491757693.37,47849,15.31,74160.8,-1.35,-28.53,-29.07,0,*51
1491757694.6,47850,15.25,74156.8,-1.31,-28.53,-29.07,0,*5D
1491757695.87,47851,15.25,74156.3,-1.31,-28.59,-29.17,0,*57
1491757697.15,47852,15.31,74160.0,-1.31,-28.43,-29.01,0,*58
1491757698.42,47853,15.25,74156.0,-1.31,-28.43,-29.01,0,*59